TimeEDT,TemperatureF,Dew PointF,Humidity,Sea Level PressureIn,VisibilityMPH,Wind Direction,Wind SpeedMPH,Gust SpeedMPH,PrecipitationIn,Events,Conditions,WindDirDegrees,DateUTC
12:54 AM,73.9,66.9,79,30.06,10.0,South,5.8,-,0.01,Rain,Rain,180,2013-08-08 04:54:00
12:58 AM,73.4,66.2,78,30.06,8.0,South,5.8,-,0.01,Rain,Rain,180,2013-08-08 04:58:00
1:54 AM,73.0,66.9,81,30.06,8.0,SSW,5.8,-,0.02,Rain,Light Rain,210,2013-08-08 05:54:00
2:14 AM,71.6,68.0,88,30.05,10.0,South,3.5,-,0.00,Rain,Light Rain,170,2013-08-08 06:14:00
2:28 AM,71.6,68.0,88,30.05,8.0,Calm,Calm,-,0.00,,Overcast,0,2013-08-08 06:28:00
2:32 AM,71.6,68.0,88,30.05,6.0,Calm,Calm,-,0.00,Rain,Light Rain,0,2013-08-08 06:32:00
2:35 AM,71.6,68.0,88,30.06,4.0,Calm,Calm,-,0.01,Rain,Rain,0,2013-08-08 06:35:00
2:38 AM,71.6,68.0,88,30.06,2.5,West,4.6,-,0.01,Rain,Light Rain,260,2013-08-08 06:38:00
2:43 AM,71.6,69.8,94,30.05,4.0,Variable,3.5,-,0.14,Rain,Rain,0,2013-08-08 06:43:00
2:45 AM,71.6,69.8,94,30.05,7.0,SSE,3.5,-,0.25,Rain,Rain,150,2013-08-08 06:45:00
2:54 AM,71.1,69.1,93,30.05,9.0,South,8.1,-,0.33,,Overcast,180,2013-08-08 06:54:00
2:59 AM,71.6,68.0,88,30.04,9.0,SSW,8.1,-,N/A,,Overcast,200,2013-08-08 06:59:00
3:08 AM,71.6,68.0,88,30.04,10.0,South,5.8,-,N/A,,Overcast,170,2013-08-08 07:08:00
3:54 AM,72.0,69.1,91,30.03,10.0,South,5.8,-,0.00,,Overcast,170,2013-08-08 07:54:00
4:54 AM,72.0,69.1,91,30.04,10.0,South,4.6,-,N/A,,Overcast,190,2013-08-08 08:54:00
5:32 AM,73.4,69.8,88,30.04,10.0,SSE,3.5,-,N/A,,Overcast,160,2013-08-08 09:32:00
5:42 AM,71.6,69.8,94,30.04,10.0,SSE,4.6,-,N/A,,Overcast,160,2013-08-08 09:42:00
5:54 AM,72.0,69.1,91,30.04,10.0,SSE,4.6,-,N/A,,Overcast,160,2013-08-08 09:54:00
6:54 AM,73.0,69.1,87,30.05,10.0,South,4.6,-,N/A,,Overcast,180,2013-08-08 10:54:00
7:39 AM,73.4,69.8,88,30.05,10.0,South,8.1,-,N/A,,Overcast,190,2013-08-08 11:39:00
7:54 AM,73.9,70.0,87,30.05,10.0,South,10.4,-,N/A,,Overcast,190,2013-08-08 11:54:00
8:38 AM,75.2,71.6,89,30.06,10.0,SW,8.1,-,N/A,,Overcast,220,2013-08-08 12:38:00
8:54 AM,77.0,71.1,82,30.06,10.0,SW,8.1,-,N/A,,Overcast,220,2013-08-08 12:54:00
9:54 AM,79.0,72.0,79,30.06,10.0,SSW,10.4,-,N/A,,Overcast,210,2013-08-08 13:54:00
10:50 AM,80.6,71.6,74,30.06,10.0,SW,11.5,-,N/A,,Overcast,220,2013-08-08 14:50:00
10:54 AM,80.1,71.1,74,30.06,10.0,SW,8.1,-,N/A,,Overcast,220,2013-08-08 14:54:00
11:31 AM,80.6,71.6,74,30.05,10.0,SSW,10.4,-,N/A,,Mostly Cloudy,210,2013-08-08 15:31:00
11:54 AM,81.0,71.1,72,30.05,10.0,SW,9.2,-,N/A,,Mostly Cloudy,230,2013-08-08 15:54:00
12:43 PM,84.2,71.6,66,30.03,10.0,SSW,11.5,-,N/A,,Mostly Cloudy,200,2013-08-08 16:43:00
12:54 PM,84.0,71.1,65,30.03,10.0,SW,11.5,-,N/A,,Mostly Cloudy,220,2013-08-08 16:54:00
1:19 PM,84.2,71.6,66,30.03,10.0,South,10.4,-,N/A,,Mostly Cloudy,190,2013-08-08 17:19:00
1:34 PM,84.2,71.6,66,30.03,10.0,SW,11.5,-,N/A,,Mostly Cloudy,220,2013-08-08 17:34:00
1:54 PM,84.9,70.0,61,30.03,10.0,SSW,12.7,-,N/A,,Mostly Cloudy,200,2013-08-08 17:54:00
2:54 PM,86.0,71.1,61,30.02,10.0,SSW,12.7,-,N/A,,Mostly Cloudy,210,2013-08-08 18:54:00
3:54 PM,82.9,72.0,69,30.02,10.0,South,9.2,-,0.01,,Mostly Cloudy,170,2013-08-08 19:54:00
4:54 PM,86.0,71.1,61,30.00,10.0,South,13.8,-,N/A,,Mostly Cloudy,190,2013-08-08 20:54:00
5:54 PM,84.0,72.0,67,30.01,10.0,South,11.5,-,N/A,,Mostly Cloudy,190,2013-08-08 21:54:00
6:54 PM,86.0,70.0,59,30.01,10.0,South,12.7,28.8,N/A,,Mostly Cloudy,190,2013-08-08 22:54:00
7:54 PM,80.1,71.1,74,30.02,10.0,South,6.9,-,N/A,,Overcast,170,2013-08-08 23:54:00
8:54 PM,79.0,71.1,77,30.03,10.0,SSE,5.8,-,N/A,,Overcast,160,2013-08-09 00:54:00
9:54 PM,78.1,71.1,79,30.04,10.0,South,11.5,-,N/A,,Overcast,180,2013-08-09 01:54:00
10:54 PM,78.1,70.0,76,30.04,10.0,South,9.2,-,N/A,,Overcast,190,2013-08-09 02:54:00
11:54 PM,77.0,71.1,82,30.03,10.0,South,8.1,-,N/A,,Overcast,180,2013-08-09 03:54:00